PEGASUS DEB, 39323

Orbit data source: Space-Track

PEGASUS DEB, 39323 is space debris in LEO originally from a launch on Thu, 19 May 1994 UTC launched from the Air Force Western Test Range (AFWTR). Debris objects in space refer to the collection of defunct objects orbiting the Earth. Examples of debris include non-operational satellites, rocket bodies, and fragments generated from explosions, collisions, or faulty payload assembly.

Loading next visibility...
Identifier
39323, 1994-029AFJ
Orbit
LEO
Country
Flag of USUS
Related business
Manufacturer
Unknown
Mission
Spacecraft
Bus & Motor
Unknown
Mass
Unknown
Launch date (UTC)
1994-05-19 (32 years ago)
Launch vehicle
Unknown
Launch site
Air Force Western Test Range (AFWTR)
Object type
Payload
Rocket body
Debris
Shape & HBR
Unknown shape, 0.1 m
Radar Cross Section
Small (<0.1 m²)

Expand to show TLE details & history
Last TLE update: 5 days ago

TLE from 5 days ago
0 PEGASUS DEB
1 39323U 94029AFJ 26231.42758999  .00005050  00000-0  61543-3 0  9993
2 39323  81.9842 286.4407 0164072 137.3557 224.0528 14.73992113750810
Epoch: 2026-08-19T10:15Z
TLE epoch observation values (Epoch: 2026-08-19T10:15:43.775Z)
Latitude
0.00008°
Longitude
164.72711°
Altitude
735.136 km
Speed
7.443 km/s
True Right ascension
19h 05m 45s
True Declination
0° 00' 00"
Sunlit
Object was in full shadow at epoch
Visualization orbit readout
Latitude
Unknown
Longitude
Unknown
Altitude
Unknown
Speed
Unknown
Apparent Right ascension
Unknown
Apparent Declination
Unknown
Sunlit
N/A
Visualization observer readout
Local Sidereal Time
05:21:12
Azimuth
Unknown
Elevation
Unknown
Doppler factor
Unknown
Orbital elements
Apogee altitude
760.642 km
Perigee altitude
530.169 km
Semi-major axis
7,023.542 km
Eccentricity
0.01641
Inclination
81.9842°
RAAN
286.4407°
Arg. of periapsis
137.3557°
True anomaly
222.76462°
Mean anomaly
224.0528°
Eccentric anomaly
223.40681°
Mean motion
3.6873 °/min
Orbital period
97.63 mins
BSTAR
0.00061543
Loading maneuver chart data...
Computing Atmospheric mass density...

Documentation

Showing up to 5 results
|